Find GPS III SV07

NORAD ID: 62339 Int'l Des: 2024-242 Owner: SFSSC Country: US Constellation: GPS operational
MEOCIRCULARGNSS

Live-Position

3D-Globus wird geladen...

Über GPS III SV07

Beschreibung wird geladen...

Nächste Überflüge

Passes for default location (London). Set your location on the main map for personalized predictions.

Höhenverlauf

Loading altitude history...

Zweizeiliger Elementsatz

1 62339U 24242A 26132.18781948 -.00000054 00000-0 00000+0 0 9996
2 62339 54.8657 335.6414 0017084 3.1785 171.5342 2.00570893 10536
Epoch: 12. Mai 2026 • Age: 39 hours

Aktueller Status

Höhe 20203.5 km
Geschwindigkeit 3.87 km/s
Subsatellitenpunkt -54.88°S, 81.48°E
Startdatum 17. Dez. 2024
Alter 1.4 years
Typ navigation

Technische Details

Klassifizierung Payload
Masse 4352.00 kg
Trockenmasse 2160.00 kg
Gesamtmasse 4352.00 kg
Länge 3.40 m
Durchmesser 1.80 m
Spannweite 14.00 m
Form Box + 2 pan
Hersteller LMSSD
Bus-Typ A2100
Phasenstatus In Orbit
Besitzer/Staat SFSSC/US

Most Searched